Flag for Austria Weather past 2 weeks in Krems, Lower Austria, Austria

Now
45 °F

Broken clouds.


Feels Like: 38 °F
Forecast: 31 / 47 °F
Wind: 13 mph from Northwest

Location: Tulln Airport

Current Time: Mar 5, 2015 at 1:52:15 PM

Latest Report: Mar 5, 2015 at 12:50 PM


Visibility: 15 mi

Pressure: 30.39 "Hg

Humidity: 57%

Dew point: 30 °F

Location of KremsLocation

Historic Weather in Krems — Graph

°F

Krems temperature yesterday

Maximum temperature yesterday: 46 °F (at 1:50 PM)
Minimum temperature yesterday: 30 °F (at 4:50 AM)
Average temperature yesterday: 41 °F

Past Weeks' High & Low Weather Summary

 TemperatureHumidityPressure
High52 °F (Feb 20, 1:50 PM)100% (Feb 20, 7:50 AM)30.74 "Hg (Feb 20, 7:50 AM)
Low23 °F (Feb 20, 4:50 AM)43% (Mar 3, 12:50 PM)29.56 "Hg (Feb 21, 7:50 PM)
Average40 °F79%30.01 "Hg
* Reported Feb 18 12:50 PM — Mar 5 12:50 PM, Krems, Weather by CustomWeather, © 2015

Note: Actual official high and low records may vary slightly from our data, if they occured in-between our weather recording intervals... More about our weather records

Advertising

Krems weather history for previous 24 hours

 ConditionsComfort  
Time TempWeatherWind HumidityBarometerVisibility
12:50 PM
Thu, Mar 5
45 °FBroken clouds.13 mph57%30.39 "Hg16 mi
11:50 AM45 °FScattered clouds.13 mph57%30.39 "Hg16 mi
10:50 AM43 °FBroken clouds.10 mph61%30.42 "Hg16 mi
9:50 AM41 °FScattered clouds.10 mph66%30.42 "Hg16 mi
8:50 AM39 °FScattered clouds.12 mph75%30.42 "Hg16 mi
7:50 AM36 °FScattered clouds.7 mph87%30.39 "Hg12 mi
6:50 AM34 °FScattered clouds.8 mph87%30.39 "Hg12 mi
5:50 AM34 °FPassing clouds.8 mph87%30.36 "Hg16 mi
4:50 AM34 °FPassing clouds.5 mph87%30.36 "Hg16 mi
9:50 PM
Wed, Mar 4
37 °FPassing clouds.7 mph81%30.30 "Hg12 mi
8:50 PM39 °FPartly cloudy.7 mph75%30.30 "Hg12 mi
7:50 PM39 °FPassing clouds.8 mph75%30.30 "Hg16 mi
6:50 PM41 °FPassing clouds.12 mph70%30.30 "Hg19 mi
5:50 PM45 °FPassing clouds.15 mph61%30.24 "Hg19 mi
4:50 PM46 °FPassing clouds.15 mph62%30.24 "Hg31 mi
3:50 PM46 °FScattered clouds.14 mph57%30.24 "Hg31 mi
2:50 PM46 °FScattered clouds.13 mph62%30.24 "Hg31 mi
1:50 PM46 °FScattered clouds.17 mph62%30.24 "Hg31 mi
Weather by CustomWeather, © 2015

See weather overviewHow to use our weather pages